Eola, IL (60519)

9:38 PM CST on February 08, 2016 (GMT -0600)
Oakhurst | | Change Station
CLOSE
Current Station
Personal Weather Station
Location: Aurora, IL
Elevation: 712 ft
Nearby Weather Stations
Active Advisory: Special Statement

Elev 712 ft 41.76 °N, 88.25 °W | Updated 44 seconds ago

Snow
Snow
23.4 °F
Feels Like 23 °F
N
0.0
Wind Variable Wind from ENE
Gusts 0.0 mph

Today
High -- | Low -- °F
--% Chance of Precip.
Yesterday
High -- | Low -- °F
Precip. -- in
Pressure 29.75 in
Visibility 3.0 miles
Clouds Mostly Cloudy 1500 ft
Overcast 2600 ft
Windchill 23 °F
Dew Point 15 °F
Humidity 70%
Rainfall 0.00 in
Snow Depth Not available.
6:58 AM 5:16 PM
New Moon, 0% visible
SPECI KDPA 090254Z 31010KT 3SM -SN BKN015 OVC026 M05/M08 A2975 RMK AO2 P0000 T10501078
Pressure 29.75 in
Visibility 3.0 miles
Clouds Mostly Cloudy 1500 ft
Overcast 2600 ft
Windchill 23 °F
Dew Point 15 °F
Humidity 70%
Rainfall 0.00 in
Snow Depth Not available.
6:58 AM 5:16 PM
New Moon, 0% visible
SPECI KDPA 090254Z 31010KT 3SM -SN BKN015 OVC026 M05/M08 A2975 RMK AO2 P0000 T10501078

10-Day Weather Forecast

Almanac

Astronomy

Feb. 08, 2016 Rise Set
Actual Time
Civil Twilight
Nautical Twilight
Astronomical Twilight
Moon
Length of Visible Light
Length of Day
Tomorrow will be .
, % of the Moon is Illuminated

Today's Extremes

State Highs State Lows

Community

WunderPhotos

Upload Photos

1,891,527 photos uploaded!

WunderBlog® & News

Nearby

Air Quality

  Air Quality AQ Index Pollutant
Not available.

Snow Depth

Station Depth Elevation

Earthquake Activity

City Distance Mag. Time & Date
Minimum magnitude displayed is 2.5.

Coastal Water Temperatures

Place Temperature

Stations

Nearby Weather Stations

Station Location Temp. Windchill Dew Point Humidity Wind Precip. Elev Updated Type
                   

Watches & Warnings

Special Statement
Issued: 4:07 PM EST Feb. 8, 2016 – National Weather Service

... Light snow likely tonight into early Tuesday...

Light snow is likely tonight into Tuesday morning with some minor
accumulations of an inch or so possible. Light snow will likely
have an adverse impact on the Tuesday morning rush hour.


307 PM CST Mon Feb 8 2016 /407 PM EST Mon Feb 8 2016/

... Light snow likely tonight into early Tuesday...

Light snow is likely tonight into Tuesday morning with some minor
accumulations of an inch or so possible. Light snow will likely
have an adverse impact on the Tuesday morning rush hour.